Time,TemperatureF,DewpointF,PressureIn,WindDirection,WindDirectionDegrees,WindSpeedMPH,WindSpeedGustMPH,Humidity,HourlyPrecipIn,Conditions,Clouds,dailyrainin,SoftwareType,DateUTC
2013-10-13 00:04:00,62.6,57.7,30.21,ENE,67,0.0,0.0,84,0.00,,,0.00,WUHU21623XXSP,2013-10-13 05:04:00,
2013-10-13 00:09:00,62.4,57.5,30.21,ENE,67,0.0,0.0,84,0.00,,,0.00,WUHU21623XXSP,2013-10-13 05:09:00,
2013-10-13 00:14:00,62.2,57.7,30.21,ENE,67,0.0,0.0,85,0.00,,,0.00,WUHU21623XXSP,2013-10-13 05:14:00,
2013-10-13 00:19:00,62.1,57.5,30.21,ENE,67,0.0,0.0,85,0.00,,,0.00,WUHU21623XXSP,2013-10-13 05:19:00,
2013-10-13 00:24:00,61.9,57.3,30.21,ENE,67,0.0,0.0,85,0.00,,,0.00,WUHU21623XXSP,2013-10-13 05:24:00,
2013-10-13 00:29:00,61.7,57.1,30.21,ENE,67,0.0,0.0,85,0.00,,,0.00,WUHU21623XXSP,2013-10-13 05:29:00,
2013-10-13 00:34:00,61.5,57.1,30.21,ENE,67,0.0,0.0,85,0.00,,,0.00,WUHU21623XXSP,2013-10-13 05:34:00,
2013-10-13 00:39:00,61.3,56.8,30.22,ENE,67,0.0,0.0,85,0.00,,,0.00,WUHU21623XXSP,2013-10-13 05:39:00,
2013-10-13 00:44:00,61.2,57.0,30.21,ENE,67,0.0,0.0,86,0.00,,,0.00,WUHU21623XXSP,2013-10-13 05:44:00,
2013-10-13 00:49:00,61.2,57.0,30.21,ENE,67,0.0,0.0,86,0.00,,,0.00,WUHU21623XXSP,2013-10-13 05:49:00,
2013-10-13 00:54:00,61.0,56.8,30.22,ENE,67,0.0,0.0,86,0.00,,,0.00,WUHU21623XXSP,2013-10-13 05:54:00,
2013-10-13 00:59:00,61.0,56.8,30.22,ENE,67,0.0,0.0,86,0.00,,,0.00,WUHU21623XXSP,2013-10-13 05:59:00,
2013-10-13 01:04:00,60.8,56.6,30.22,ENE,67,0.0,0.0,86,0.00,,,0.00,WUHU21623XXSP,2013-10-13 06:04:00,
2013-10-13 01:09:00,60.6,56.8,30.22,ENE,67,0.0,0.0,87,0.00,,,0.00,WUHU21623XXSP,2013-10-13 06:09:00,
2013-10-13 01:14:00,60.6,56.8,30.22,ENE,67,0.0,0.0,87,0.00,,,0.00,WUHU21623XXSP,2013-10-13 06:14:00,
2013-10-13 01:19:00,60.6,56.4,30.22,ENE,67,0.0,0.0,86,0.00,,,0.00,WUHU21623XXSP,2013-10-13 06:19:00,
2013-10-13 01:24:00,60.6,56.4,30.22,ENE,67,0.0,0.0,86,0.00,,,0.00,WUHU21623XXSP,2013-10-13 06:24:00,
2013-10-13 01:29:00,60.6,56.4,30.22,ENE,67,0.0,0.0,86,0.00,,,0.00,WUHU21623XXSP,2013-10-13 06:29:00,
2013-10-13 01:34:00,60.6,56.4,30.22,NE,45,0.0,0.0,86,0.00,,,0.00,WUHU21623XXSP,2013-10-13 06:34:00,
2013-10-13 01:39:00,60.6,56.1,30.22,SE,135,0.0,0.0,85,0.00,,,0.00,WUHU21623XXSP,2013-10-13 06:39:00,
2013-10-13 01:44:00,60.6,55.8,30.22,SE,135,0.0,0.0,84,0.00,,,0.00,WUHU21623XXSP,2013-10-13 06:44:00,
2013-10-13 01:49:00,60.6,55.8,30.22,SE,135,0.0,0.0,84,0.00,,,0.00,WUHU21623XXSP,2013-10-13 06:49:00,
2013-10-13 01:54:00,60.6,55.8,30.23,SE,135,0.0,0.0,84,0.00,,,0.00,WUHU21623XXSP,2013-10-13 06:54:00,
2013-10-13 01:59:00,60.6,55.5,30.23,SE,135,0.0,0.0,83,0.00,,,0.00,WUHU21623XXSP,2013-10-13 06:59:00,
2013-10-13 02:04:00,60.8,55.5,30.23,ESE,112,0.0,0.0,82,0.00,,,0.00,WUHU21623XXSP,2013-10-13 07:04:00,
2013-10-13 02:09:00,60.8,55.3,30.23,ESE,112,0.0,0.0,82,0.00,,,0.00,WUHU21623XXSP,2013-10-13 07:09:00,
2013-10-13 02:14:00,60.6,54.8,30.23,ESE,112,0.0,0.0,81,0.00,,,0.00,WUHU21623XXSP,2013-10-13 07:14:00,
2013-10-13 02:19:00,60.6,54.8,30.23,ESE,112,0.0,0.0,81,0.00,,,0.00,WUHU21623XXSP,2013-10-13 07:19:00,
2013-10-13 02:24:00,60.4,54.3,30.23,ESE,112,0.0,0.0,80,0.00,,,0.00,WUHU21623XXSP,2013-10-13 07:24:00,
2013-10-13 02:29:00,60.4,54.3,30.23,ESE,112,0.0,0.0,80,0.00,,,0.00,WUHU21623XXSP,2013-10-13 07:29:00,
2013-10-13 02:34:00,60.3,54.1,30.24,ESE,112,0.0,0.0,80,0.00,,,0.00,WUHU21623XXSP,2013-10-13 07:34:00,
2013-10-13 02:39:00,60.1,54.0,30.24,ESE,112,0.0,0.0,80,0.00,,,0.00,WUHU21623XXSP,2013-10-13 07:39:00,
2013-10-13 02:44:00,60.1,54.0,30.23,ESE,112,0.0,0.0,80,0.00,,,0.00,WUHU21623XXSP,2013-10-13 07:44:00,
2013-10-13 02:50:00,59.9,53.8,30.23,ESE,112,0.0,0.0,80,0.00,,,0.00,WUHU21623XXSP,2013-10-13 07:50:00,
2013-10-13 02:55:00,59.7,53.6,30.23,ESE,112,0.0,0.0,80,0.00,,,0.00,WUHU21623XXSP,2013-10-13 07:55:00,
2013-10-13 03:00:00,59.7,53.6,30.24,ENE,67,0.0,0.0,80,0.00,,,0.00,WUHU21623XXSP,2013-10-13 08:00:00,
2013-10-13 03:05:00,59.5,53.4,30.24,ENE,67,0.0,0.0,80,0.00,,,0.00,WUHU21623XXSP,2013-10-13 08:05:00,
2013-10-13 03:10:00,59.5,53.4,30.24,ENE,67,0.0,0.0,80,0.00,,,0.00,WUHU21623XXSP,2013-10-13 08:10:00,
2013-10-13 03:15:00,59.2,53.4,30.24,ENE,67,0.0,0.0,81,0.00,,,0.00,WUHU21623XXSP,2013-10-13 08:15:00,
2013-10-13 03:20:00,58.8,53.0,30.24,ENE,67,0.0,0.0,81,0.00,,,0.00,WUHU21623XXSP,2013-10-13 08:20:00,
2013-10-13 03:25:00,58.8,53.0,30.24,ENE,67,0.0,0.0,81,0.00,,,0.00,WUHU21623XXSP,2013-10-13 08:25:00,
2013-10-13 03:30:00,58.8,53.0,30.24,ENE,67,0.0,0.0,81,0.00,,,0.00,WUHU21623XXSP,2013-10-13 08:30:00,
2013-10-13 03:35:00,58.8,53.0,30.24,ENE,67,0.0,0.0,81,0.00,,,0.00,WUHU21623XXSP,2013-10-13 08:35:00,
2013-10-13 03:40:00,58.8,53.0,30.24,ENE,67,0.0,0.0,81,0.00,,,0.00,WUHU21623XXSP,2013-10-13 08:40:00,
2013-10-13 03:45:00,58.8,53.0,30.23,ENE,67,0.0,0.0,81,0.00,,,0.00,WUHU21623XXSP,2013-10-13 08:45:00,
2013-10-13 03:50:00,58.8,53.0,30.23,NE,45,0.0,0.0,81,0.00,,,0.00,WUHU21623XXSP,2013-10-13 08:50:00,
2013-10-13 03:55:00,58.8,52.7,30.24,NE,45,0.0,0.0,80,0.00,,,0.00,WUHU21623XXSP,2013-10-13 08:55:00,
2013-10-13 04:00:00,58.8,52.7,30.24,NE,45,0.0,0.0,80,0.00,,,0.00,WUHU21623XXSP,2013-10-13 09:00:00,
2013-10-13 04:05:00,58.8,52.7,30.24,NE,45,0.0,0.0,80,0.00,,,0.00,WUHU21623XXSP,2013-10-13 09:05:00,
2013-10-13 04:10:00,58.8,52.7,30.24,NE,45,0.0,0.0,80,0.00,,,0.00,WUHU21623XXSP,2013-10-13 09:10:00,
2013-10-13 04:15:00,58.8,52.7,30.24,NE,45,0.0,0.0,80,0.00,,,0.00,WUHU21623XXSP,2013-10-13 09:15:00,
2013-10-13 04:20:00,58.8,52.7,30.24,NE,45,0.0,0.0,80,0.00,,,0.00,WUHU21623XXSP,2013-10-13 09:20:00,
2013-10-13 04:25:00,58.6,52.5,30.24,NNE,22,0.0,0.0,80,0.00,,,0.00,WUHU21623XXSP,2013-10-13 09:25:00,
2013-10-13 04:30:00,58.6,52.5,30.24,NNE,22,0.0,0.0,80,0.00,,,0.00,WUHU21623XXSP,2013-10-13 09:30:00,
2013-10-13 04:35:00,58.6,52.5,30.24,NNE,22,0.0,0.0,80,0.00,,,0.00,WUHU21623XXSP,2013-10-13 09:35:00,
2013-10-13 04:40:00,58.3,52.5,30.24,NNE,22,0.0,0.0,81,0.00,,,0.00,WUHU21623XXSP,2013-10-13 09:40:00,
2013-10-13 04:45:00,58.3,52.5,30.25,NNE,22,0.0,0.0,81,0.00,,,0.00,WUHU21623XXSP,2013-10-13 09:45:00,
2013-10-13 04:50:00,58.3,52.5,30.25,NNE,22,0.0,0.0,81,0.00,,,0.00,WUHU21623XXSP,2013-10-13 09:50:00,
2013-10-13 04:55:00,58.5,52.3,30.25,NNE,22,0.0,0.0,80,0.00,,,0.00,WUHU21623XXSP,2013-10-13 09:55:00,
2013-10-13 05:00:00,58.6,52.5,30.25,NNE,22,0.0,0.0,80,0.00,,,0.00,WUHU21623XXSP,2013-10-13 10:00:00,
2013-10-13 05:05:00,58.6,52.5,30.25,NNE,22,0.0,0.0,80,0.00,,,0.00,WUHU21623XXSP,2013-10-13 10:05:00,
2013-10-13 05:10:00,58.6,52.2,30.26,NNE,22,0.0,0.0,79,0.00,,,0.00,WUHU21623XXSP,2013-10-13 10:10:00,
2013-10-13 05:15:00,58.8,52.0,30.26,NNE,22,0.0,0.0,78,0.00,,,0.00,WUHU21623XXSP,2013-10-13 10:15:00,
2013-10-13 05:20:00,58.8,52.0,30.26,NNE,22,0.0,0.0,78,0.00,,,0.00,WUHU21623XXSP,2013-10-13 10:20:00,
2013-10-13 05:25:00,58.8,51.6,30.26,NNE,22,0.0,0.0,77,0.00,,,0.00,WUHU21623XXSP,2013-10-13 10:25:00,
2013-10-13 05:30:00,58.6,51.4,30.26,NNE,22,0.0,0.0,77,0.00,,,0.00,WUHU21623XXSP,2013-10-13 10:30:00,
2013-10-13 05:35:00,58.6,51.4,30.27,NE,45,0.0,0.0,77,0.00,,,0.00,WUHU21623XXSP,2013-10-13 10:35:00,
2013-10-13 05:40:00,58.8,51.6,30.27,NE,45,0.0,0.0,77,0.00,,,0.00,WUHU21623XXSP,2013-10-13 10:40:00,
2013-10-13 05:45:00,58.8,51.3,30.27,NE,45,0.0,0.0,76,0.00,,,0.00,WUHU21623XXSP,2013-10-13 10:45:00,
2013-10-13 05:50:00,58.8,51.3,30.27,NE,45,0.0,0.0,76,0.00,,,0.00,WUHU21623XXSP,2013-10-13 10:50:00,
2013-10-13 05:55:00,58.8,50.5,30.26,NE,45,0.0,0.0,74,0.00,,,0.00,WUHU21623XXSP,2013-10-13 10:55:00,
2013-10-13 06:00:00,58.8,50.5,30.27,NE,45,0.0,0.0,74,0.00,,,0.00,WUHU21623XXSP,2013-10-13 11:00:00,
2013-10-13 06:05:00,58.8,50.5,30.27,NE,45,0.0,0.0,74,0.00,,,0.00,WUHU21623XXSP,2013-10-13 11:05:00,
2013-10-13 06:10:00,58.8,50.5,30.28,NE,45,0.0,0.0,74,0.00,,,0.00,WUHU21623XXSP,2013-10-13 11:10:00,
2013-10-13 06:15:00,58.8,50.5,30.28,NE,45,0.0,0.0,73,0.00,,,0.00,WUHU21623XXSP,2013-10-13 11:15:00,
2013-10-13 06:20:00,59.0,50.2,30.28,NE,45,0.0,0.0,73,0.00,,,0.00,WUHU21623XXSP,2013-10-13 11:20:00,
2013-10-13 06:25:00,59.2,50.2,30.28,NE,45,0.0,0.0,72,0.00,,,0.00,WUHU21623XXSP,2013-10-13 11:25:00,
2013-10-13 06:30:00,59.4,50.4,30.28,NE,45,0.0,0.0,72,0.00,,,0.00,WUHU21623XXSP,2013-10-13 11:30:00,
2013-10-13 06:35:00,59.5,50.5,30.27,NE,45,0.0,0.0,72,0.00,,,0.00,WUHU21623XXSP,2013-10-13 11:35:00,
2013-10-13 06:40:00,59.5,50.5,30.28,NE,45,0.0,0.0,72,0.00,,,0.00,WUHU21623XXSP,2013-10-13 11:40:00,
2013-10-13 06:45:00,59.5,50.5,30.28,NE,45,0.0,0.0,72,0.00,,,0.00,WUHU21623XXSP,2013-10-13 11:45:00,
2013-10-13 06:50:00,59.5,50.5,30.28,NE,45,0.0,0.0,72,0.00,,,0.00,WUHU21623XXSP,2013-10-13 11:50:00,
2013-10-13 06:55:00,59.7,50.7,30.28,NE,45,0.0,0.0,72,0.00,,,0.00,WUHU21623XXSP,2013-10-13 11:55:00,
2013-10-13 07:00:00,59.5,50.5,30.27,NE,45,0.0,0.0,71,0.00,,,0.00,WUHU21623XXSP,2013-10-13 12:00:00,
2013-10-13 07:05:00,59.5,50.2,30.27,NE,45,0.0,0.0,71,0.00,,,0.00,WUHU21623XXSP,2013-10-13 12:05:00,
2013-10-13 07:10:00,59.5,50.2,30.27,SE,135,0.0,0.0,71,0.00,,,0.00,WUHU21623XXSP,2013-10-13 12:10:00,
2013-10-13 07:15:00,59.4,50.0,30.28,SE,135,0.0,0.0,71,0.00,,,0.00,WUHU21623XXSP,2013-10-13 12:15:00,
2013-10-13 07:20:00,59.4,50.4,30.28,SE,135,0.0,0.0,72,0.00,,,0.00,WUHU21623XXSP,2013-10-13 12:20:00,
2013-10-13 07:25:00,59.4,50.0,30.28,SE,135,0.0,0.0,71,0.00,,,0.00,WUHU21623XXSP,2013-10-13 12:25:00,
2013-10-13 07:30:00,59.5,50.2,30.29,SE,135,0.0,0.0,71,0.00,,,0.00,WUHU21623XXSP,2013-10-13 12:30:00,
2013-10-13 07:35:00,59.5,50.2,30.29,SE,135,0.0,0.0,70,0.00,,,0.00,WUHU21623XXSP,2013-10-13 12:35:00,
2013-10-13 07:40:00,59.7,49.6,30.29,ESE,112,0.0,0.0,69,0.00,,,0.00,WUHU21623XXSP,2013-10-13 12:40:00,
2013-10-13 07:45:00,59.7,49.6,30.29,ESE,112,0.0,0.0,69,0.00,,,0.00,WUHU21623XXSP,2013-10-13 12:45:00,
2013-10-13 07:50:00,59.9,50.2,30.30,East,90,0.0,0.0,70,0.00,,,0.00,WUHU21623XXSP,2013-10-13 12:50:00,
2013-10-13 07:55:00,59.7,50.0,30.30,East,90,0.0,0.0,70,0.00,,,0.00,WUHU21623XXSP,2013-10-13 12:55:00,
2013-10-13 08:00:00,59.7,50.0,30.30,ENE,67,0.0,0.0,70,0.00,,,0.00,WUHU21623XXSP,2013-10-13 13:00:00,
2013-10-13 08:05:00,59.5,50.0,30.30,ENE,67,0.0,0.0,70,0.00,,,0.00,WUHU21623XXSP,2013-10-13 13:05:00,
2013-10-13 08:10:00,59.5,49.8,30.31,ENE,67,0.0,0.0,70,0.00,,,0.00,WUHU21623XXSP,2013-10-13 13:10:00,
2013-10-13 08:15:00,59.5,49.8,30.31,ENE,67,0.0,0.0,70,0.00,,,0.00,WUHU21623XXSP,2013-10-13 13:15:00,
2013-10-13 08:20:00,59.7,50.0,30.31,ENE,67,0.0,0.0,70,0.00,,,0.00,WUHU21623XXSP,2013-10-13 13:20:00,
2013-10-13 08:25:00,59.7,49.6,30.31,NNE,22,0.0,0.0,69,0.00,,,0.00,WUHU21623XXSP,2013-10-13 13:25:00,
2013-10-13 08:30:00,59.7,50.0,30.31,NNE,22,0.0,0.0,70,0.00,,,0.00,WUHU21623XXSP,2013-10-13 13:30:00,
2013-10-13 08:35:00,59.7,50.0,30.32,NNE,22,0.0,0.0,70,0.00,,,0.00,WUHU21623XXSP,2013-10-13 13:35:00,
2013-10-13 08:40:00,59.9,50.2,30.32,NNE,22,0.0,0.0,70,0.00,,,0.00,WUHU21623XXSP,2013-10-13 13:40:00,
2013-10-13 08:45:00,59.9,50.2,30.32,NNE,22,0.0,0.0,70,0.00,,,0.00,WUHU21623XXSP,2013-10-13 13:45:00,
2013-10-13 08:50:00,60.1,50.4,30.33,NNE,22,0.0,0.0,70,0.00,,,0.00,WUHU21623XXSP,2013-10-13 13:50:00,
2013-10-13 08:55:00,60.4,50.7,30.34,NNE,22,0.0,0.0,68,0.00,,,0.00,WUHU21623XXSP,2013-10-13 13:55:00,
2013-10-13 09:00:00,60.6,50.1,30.34,ENE,67,0.0,0.0,68,0.00,,,0.00,WUHU21623XXSP,2013-10-13 14:00:00,
2013-10-13 09:05:00,60.6,49.7,30.34,ENE,67,0.0,0.0,67,0.00,,,0.00,WUHU21623XXSP,2013-10-13 14:05:00,
2013-10-13 09:10:00,60.6,49.7,30.33,ENE,67,0.0,0.0,67,0.00,,,0.00,WUHU21623XXSP,2013-10-13 14:10:00,
2013-10-13 09:15:00,60.6,49.7,30.32,ENE,67,0.0,0.0,66,0.00,,,0.00,WUHU21623XXSP,2013-10-13 14:15:00,
2013-10-13 09:20:00,60.6,49.2,30.33,ENE,67,0.0,0.0,66,0.00,,,0.00,WUHU21623XXSP,2013-10-13 14:20:00,
2013-10-13 09:25:00,61.0,50.0,30.33,East,90,0.0,0.0,67,0.00,,,0.00,WUHU21623XXSP,2013-10-13 14:25:00,
2013-10-13 09:30:00,61.2,50.0,30.34,East,90,0.0,0.0,67,0.00,,,0.00,WUHU21623XXSP,2013-10-13 14:30:00,
2013-10-13 09:35:00,61.5,50.5,30.34,ENE,67,0.0,0.0,67,0.00,,,0.00,WUHU21623XXSP,2013-10-13 14:35:00,
2013-10-13 09:40:00,62.2,50.7,30.34,East,90,0.0,0.0,66,0.00,,,0.00,WUHU21623XXSP,2013-10-13 14:40:00,
2013-10-13 09:45:00,62.4,50.1,30.34,ENE,67,0.0,0.0,64,0.00,,,0.00,WUHU21623XXSP,2013-10-13 14:45:00,
2013-10-13 09:50:00,62.6,50.1,30.34,ENE,67,0.0,0.0,64,0.00,,,0.00,WUHU21623XXSP,2013-10-13 14:50:00,
2013-10-13 09:55:00,62.8,50.0,30.33,ESE,112,0.0,0.0,63,0.00,,,0.00,WUHU21623XXSP,2013-10-13 14:55:00,
2013-10-13 10:00:00,62.8,50.0,30.33,NE,45,0.0,0.0,63,0.00,,,0.00,WUHU21623XXSP,2013-10-13 15:00:00,
2013-10-13 10:05:00,63.0,50.1,30.34,East,90,0.0,0.0,63,0.00,,,0.00,WUHU21623XXSP,2013-10-13 15:05:00,
2013-10-13 10:10:00,63.5,50.5,30.33,SE,135,0.0,0.0,63,0.00,,,0.00,WUHU21623XXSP,2013-10-13 15:10:00,
2013-10-13 10:15:00,63.9,50.5,30.34,ESE,112,0.0,0.0,62,0.00,,,0.00,WUHU21623XXSP,2013-10-13 15:15:00,
2013-10-13 10:20:00,64.0,50.7,30.34,ESE,112,0.0,0.0,62,0.00,,,0.00,WUHU21623XXSP,2013-10-13 15:20:00,
2013-10-13 10:25:00,64.0,50.7,30.34,SSE,157,0.0,0.0,62,0.00,,,0.00,WUHU21623XXSP,2013-10-13 15:25:00,
2013-10-13 10:30:00,64.0,50.7,30.34,SSE,157,0.0,0.0,62,0.00,,,0.00,WUHU21623XXSP,2013-10-13 15:30:00,
2013-10-13 10:35:00,64.2,50.9,30.34,SE,135,0.0,0.0,62,0.00,,,0.00,WUHU21623XXSP,2013-10-13 15:35:00,
2013-10-13 10:40:00,64.6,51.2,30.35,SE,135,0.0,0.0,62,0.00,,,0.00,WUHU21623XXSP,2013-10-13 15:40:00,
2013-10-13 10:45:00,64.9,51.4,30.34,SE,135,0.0,0.0,62,0.00,,,0.00,WUHU21623XXSP,2013-10-13 15:45:00,
2013-10-13 10:50:00,65.1,50.4,30.34,NNE,22,0.0,0.0,59,0.00,,,0.00,WUHU21623XXSP,2013-10-13 15:50:00,
2013-10-13 10:55:00,65.3,51.1,30.35,NNE,22,0.0,0.0,60,0.00,,,0.00,WUHU21623XXSP,2013-10-13 15:55:00,
2013-10-13 11:00:00,65.5,51.3,30.34,NNE,22,0.0,0.0,60,0.00,,,0.00,WUHU21623XXSP,2013-10-13 16:00:00,
2013-10-13 11:05:00,66.0,51.8,30.35,ENE,67,0.0,0.0,60,0.00,,,0.00,WUHU21623XXSP,2013-10-13 16:05:00,
2013-10-13 11:10:00,66.6,51.3,30.35,ENE,67,0.0,0.0,58,0.00,,,0.00,WUHU21623XXSP,2013-10-13 16:10:00,
2013-10-13 11:15:00,67.1,52.3,30.35,East,90,0.0,0.0,59,0.00,,,0.00,WUHU21623XXSP,2013-10-13 16:15:00,
2013-10-13 11:20:00,67.8,52.5,30.35,SE,135,0.0,0.0,58,0.00,,,0.00,WUHU21623XXSP,2013-10-13 16:20:00,
2013-10-13 11:25:00,68.4,53.0,30.35,ESE,112,0.0,0.0,58,0.00,,,0.00,WUHU21623XXSP,2013-10-13 16:25:00,
2013-10-13 11:30:00,68.7,52.8,30.36,ESE,112,0.0,0.0,57,0.00,,,0.00,WUHU21623XXSP,2013-10-13 16:30:00,
2013-10-13 11:35:00,69.1,52.2,30.35,ESE,112,0.0,0.0,55,0.00,,,0.00,WUHU21623XXSP,2013-10-13 16:35:00,
2013-10-13 11:40:00,69.1,52.7,30.35,ESE,112,0.0,0.0,56,0.00,,,0.00,WUHU21623XXSP,2013-10-13 16:40:00,
2013-10-13 11:45:00,69.1,52.7,30.34,ESE,112,0.0,0.0,56,0.00,,,0.00,WUHU21623XXSP,2013-10-13 16:45:00,
2013-10-13 11:50:00,69.6,53.2,30.34,ESE,112,0.0,0.0,56,0.00,,,0.00,WUHU21623XXSP,2013-10-13 16:50:00,
2013-10-13 11:58:00,69.4,53.0,30.34,ESE,112,0.0,0.0,56,0.00,,,0.00,WUHU21623XXSP,2013-10-13 16:58:00,
2013-10-13 12:03:00,69.4,53.0,30.34,ESE,112,0.0,0.0,56,0.00,,,0.00,WUHU21623XXSP,2013-10-13 17:03:00,
2013-10-13 12:08:00,69.4,53.0,30.34,East,90,0.0,0.0,56,0.00,,,0.00,WUHU21623XXSP,2013-10-13 17:08:00,
2013-10-13 12:13:00,69.4,53.0,30.34,East,90,0.0,0.0,56,0.00,,,0.00,WUHU21623XXSP,2013-10-13 17:13:00,
2013-10-13 12:18:00,69.4,52.5,30.34,NE,45,0.0,0.0,55,0.00,,,0.00,WUHU21623XXSP,2013-10-13 17:18:00,
2013-10-13 12:23:00,69.3,52.9,30.34,NE,45,0.0,0.0,56,0.00,,,0.00,WUHU21623XXSP,2013-10-13 17:23:00,
2013-10-13 12:28:00,69.3,52.9,30.34,NE,45,0.0,0.0,56,0.00,,,0.00,WUHU21623XXSP,2013-10-13 17:28:00,
2013-10-13 12:33:00,69.1,53.2,30.34,NE,45,0.0,0.0,57,0.00,,,0.00,WUHU21623XXSP,2013-10-13 17:33:00,
2013-10-13 12:38:00,69.4,53.5,30.34,NE,45,0.0,0.0,57,0.00,,,0.00,WUHU21623XXSP,2013-10-13 17:38:00,
2013-10-13 12:43:00,69.6,53.7,30.34,NE,45,0.0,0.0,57,0.00,,,0.00,WUHU21623XXSP,2013-10-13 17:43:00,
2013-10-13 12:48:00,69.6,53.7,30.34,NE,45,0.0,0.0,57,0.00,,,0.00,WUHU21623XXSP,2013-10-13 17:48:00,
2013-10-13 12:53:00,70.3,54.4,30.34,ESE,112,0.0,0.0,57,0.00,,,0.00,WUHU21623XXSP,2013-10-13 17:53:00,
2013-10-13 12:58:00,70.9,54.4,30.34,ESE,112,0.0,0.0,56,0.00,,,0.00,WUHU21623XXSP,2013-10-13 17:58:00,
2013-10-13 13:03:00,71.8,54.7,30.33,ESE,112,0.0,0.0,55,0.00,,,0.00,WUHU21623XXSP,2013-10-13 18:03:00,
2013-10-13 13:08:00,72.5,55.3,30.33,ESE,112,0.0,0.0,55,0.00,,,0.00,WUHU21623XXSP,2013-10-13 18:08:00,
2013-10-13 13:13:00,73.6,55.8,30.33,ESE,112,0.0,0.0,54,0.00,,,0.00,WUHU21623XXSP,2013-10-13 18:13:00,
2013-10-13 13:18:00,75.0,55.7,30.33,NNE,22,0.0,0.0,51,0.00,,,0.00,WUHU21623XXSP,2013-10-13 18:18:00,
2013-10-13 13:23:00,75.7,56.4,30.33,NNE,22,0.0,0.0,51,0.00,,,0.00,WUHU21623XXSP,2013-10-13 18:23:00,
2013-10-13 13:28:00,76.3,56.9,30.33,SSE,157,0.0,0.0,51,0.00,,,0.00,WUHU21623XXSP,2013-10-13 18:28:00,
2013-10-13 13:33:00,78.4,58.3,30.33,SSE,157,0.0,0.0,50,0.00,,,0.00,WUHU21623XXSP,2013-10-13 18:33:00,
2013-10-13 13:38:00,80.2,58.7,30.32,SSE,157,0.0,0.0,48,0.00,,,0.00,WUHU21623XXSP,2013-10-13 18:38:00,
2013-10-13 13:43:00,81.0,58.7,30.31,ENE,67,0.0,0.0,47,0.00,,,0.00,WUHU21623XXSP,2013-10-13 18:43:00,
2013-10-13 13:48:00,81.0,58.1,30.31,ENE,67,0.0,0.0,46,0.00,,,0.00,WUHU21623XXSP,2013-10-13 18:48:00,
2013-10-13 13:53:00,80.4,57.7,30.31,ENE,67,0.0,0.0,46,0.00,,,0.00,WUHU21623XXSP,2013-10-13 18:53:00,
2013-10-13 13:58:00,80.2,57.5,30.30,ENE,67,0.0,0.0,46,0.00,,,0.00,WUHU21623XXSP,2013-10-13 18:58:00,
2013-10-13 14:04:00,79.9,57.2,30.30,ENE,67,0.0,0.0,46,0.00,,,0.00,WUHU21623XXSP,2013-10-13 19:04:00,
2013-10-13 14:09:00,79.9,56.8,30.30,ENE,67,0.0,0.0,47,0.00,,,0.00,WUHU21623XXSP,2013-10-13 19:09:00,
2013-10-13 14:14:00,81.3,59.1,30.29,ENE,67,0.0,0.0,47,0.00,,,0.00,WUHU21623XXSP,2013-10-13 19:14:00,
2013-10-13 14:19:00,83.3,59.7,30.29,ENE,67,0.0,0.0,45,0.00,,,0.00,WUHU21623XXSP,2013-10-13 19:19:00,
2013-10-13 14:24:00,85.8,61.4,30.29,ENE,67,0.0,0.0,44,0.00,,,0.00,WUHU21623XXSP,2013-10-13 19:24:00,
2013-10-13 14:29:00,87.1,61.2,30.29,SE,135,6.0,6.0,42,0.00,,,0.00,WUHU21623XXSP,2013-10-13 19:29:00,
2013-10-13 14:35:00,86.7,60.9,30.28,SE,135,0.0,6.0,42,0.00,,,0.00,WUHU21623XXSP,2013-10-13 19:35:00,
2013-10-13 14:40:00,85.3,59.6,30.28,SE,135,0.0,0.0,42,0.00,,,0.00,WUHU21623XXSP,2013-10-13 19:40:00,
2013-10-13 14:45:00,84.7,59.8,30.28,SE,135,0.0,0.0,43,0.00,,,0.00,WUHU21623XXSP,2013-10-13 19:45:00,
2013-10-13 14:50:00,84.0,59.7,30.28,ESE,112,0.0,0.0,44,0.00,,,0.00,WUHU21623XXSP,2013-10-13 19:50:00,
2013-10-13 14:55:00,84.6,60.2,30.28,ESE,112,0.0,0.0,44,0.00,,,0.00,WUHU21623XXSP,2013-10-13 19:55:00,
2013-10-13 15:00:00,83.5,59.2,30.28,ESE,112,0.0,0.0,44,0.00,,,0.00,WUHU21623XXSP,2013-10-13 20:00:00,
2013-10-13 15:05:00,82.2,58.7,30.28,SE,135,0.0,0.0,45,0.00,,,0.00,WUHU21623XXSP,2013-10-13 20:05:00,
2013-10-13 15:10:00,81.1,58.3,30.28,SE,135,0.0,0.0,46,0.00,,,0.00,WUHU21623XXSP,2013-10-13 20:10:00,
2013-10-13 15:15:00,80.8,58.6,30.27,East,90,0.0,0.0,47,0.00,,,0.00,WUHU21623XXSP,2013-10-13 20:15:00,
2013-10-13 15:20:00,81.0,58.7,30.27,East,90,0.0,0.0,47,0.00,,,0.00,WUHU21623XXSP,2013-10-13 20:20:00,
2013-10-13 15:25:00,81.7,59.4,30.27,ENE,67,0.0,0.0,47,0.00,,,0.00,WUHU21623XXSP,2013-10-13 20:25:00,
2013-10-13 15:30:00,82.0,59.7,30.27,SSE,157,0.0,0.0,47,0.00,,,0.00,WUHU21623XXSP,2013-10-13 20:30:00,
2013-10-13 15:35:00,82.2,59.3,30.27,NNE,22,0.0,0.0,46,0.00,,,0.00,WUHU21623XXSP,2013-10-13 20:35:00,
2013-10-13 15:40:00,82.2,59.3,30.27,ENE,67,0.0,0.0,46,0.00,,,0.00,WUHU21623XXSP,2013-10-13 20:40:00,
2013-10-13 16:06:00,83.8,60.2,30.26,ENE,67,0.0,0.0,45,0.00,,,0.00,WUHU21623XXSP,2013-10-13 21:06:00,
2013-10-13 16:11:00,83.8,60.2,30.26,ENE,67,0.0,0.0,45,0.00,,,0.00,WUHU21623XXSP,2013-10-13 21:11:00,
2013-10-13 16:16:00,83.8,60.2,30.26,East,90,0.0,0.0,45,0.00,,,0.00,WUHU21623XXSP,2013-10-13 21:16:00,
2013-10-13 16:21:00,83.5,59.2,30.27,ENE,67,0.0,0.0,44,0.00,,,0.00,WUHU21623XXSP,2013-10-13 21:21:00,
2013-10-13 16:26:00,82.6,59.0,30.27,ENE,67,0.0,0.0,45,0.00,,,0.00,WUHU21623XXSP,2013-10-13 21:26:00,
2013-10-13 16:31:00,81.3,58.5,30.26,ENE,67,0.0,0.0,46,0.00,,,0.00,WUHU21623XXSP,2013-10-13 21:31:00,
2013-10-13 16:36:00,81.0,58.1,30.26,SE,135,0.0,0.0,46,0.00,,,0.00,WUHU21623XXSP,2013-10-13 21:36:00,
2013-10-13 16:41:00,81.0,58.7,30.26,ESE,112,0.0,0.0,47,0.00,,,0.00,WUHU21623XXSP,2013-10-13 21:41:00,
2013-10-13 16:46:00,81.1,58.9,30.26,East,90,0.0,0.0,47,0.00,,,0.00,WUHU21623XXSP,2013-10-13 21:46:00,
2013-10-13 16:51:00,81.0,58.1,30.26,NNE,22,0.0,0.0,46,0.00,,,0.00,WUHU21623XXSP,2013-10-13 21:51:00,
2013-10-13 16:56:00,80.2,58.1,30.26,NNE,22,0.0,0.0,47,0.00,,,0.00,WUHU21623XXSP,2013-10-13 21:56:00,
2013-10-13 17:01:00,79.5,58.1,30.26,NNE,22,0.0,0.0,48,0.00,,,0.00,WUHU21623XXSP,2013-10-13 22:01:00,
2013-10-13 17:06:00,79.0,57.6,30.26,NNE,22,0.0,0.0,48,0.00,,,0.00,WUHU21623XXSP,2013-10-13 22:06:00,
2013-10-13 17:11:00,78.3,56.9,30.25,NNE,22,0.0,0.0,48,0.00,,,0.00,WUHU21623XXSP,2013-10-13 22:11:00,
2013-10-13 17:16:00,77.5,57.5,30.25,NNE,22,0.0,0.0,50,0.00,,,0.00,WUHU21623XXSP,2013-10-13 22:16:00,
2013-10-13 17:21:00,76.3,56.4,30.26,NE,45,0.0,0.0,50,0.00,,,0.00,WUHU21623XXSP,2013-10-13 22:21:00,
2013-10-13 17:26:00,74.7,55.4,30.26,NE,45,0.0,0.0,51,0.00,,,0.00,WUHU21623XXSP,2013-10-13 22:26:00,
2013-10-13 17:31:00,73.8,55.0,30.26,NE,45,0.0,0.0,52,0.00,,,0.00,WUHU21623XXSP,2013-10-13 22:31:00,
2013-10-13 17:36:00,73.0,54.8,30.26,ENE,67,0.0,0.0,53,0.00,,,0.00,WUHU21623XXSP,2013-10-13 22:36:00,
2013-10-13 17:41:00,72.3,54.6,30.26,NE,45,0.0,0.0,54,0.00,,,0.00,WUHU21623XXSP,2013-10-13 22:41:00,
2013-10-13 17:46:00,72.0,54.8,30.26,NE,45,0.0,0.0,55,0.00,,,0.00,WUHU21623XXSP,2013-10-13 22:46:00,
2013-10-13 17:51:00,71.6,55.0,30.26,NE,45,0.0,0.0,56,0.00,,,0.00,WUHU21623XXSP,2013-10-13 22:51:00,
2013-10-13 17:56:00,71.2,55.2,30.26,NE,45,0.0,0.0,57,0.00,,,0.00,WUHU21623XXSP,2013-10-13 22:56:00,
2013-10-13 18:01:00,70.9,54.9,30.25,NE,45,0.0,0.0,57,0.00,,,0.00,WUHU21623XXSP,2013-10-13 23:01:00,
2013-10-13 18:06:00,70.7,55.2,30.25,NE,45,0.0,0.0,58,0.00,,,0.00,WUHU21623XXSP,2013-10-13 23:06:00,
2013-10-13 18:11:00,70.3,54.9,30.26,NE,45,0.0,0.0,58,0.00,,,0.00,WUHU21623XXSP,2013-10-13 23:11:00,
2013-10-13 18:17:00,70.2,55.2,30.26,NE,45,0.0,0.0,59,0.00,,,0.00,WUHU21623XXSP,2013-10-13 23:17:00,
2013-10-13 18:22:00,69.6,55.2,30.26,NNE,22,0.0,0.0,60,0.00,,,0.00,WUHU21623XXSP,2013-10-13 23:22:00,
2013-10-13 18:27:00,69.3,54.9,30.26,NNE,22,0.0,0.0,60,0.00,,,0.00,WUHU21623XXSP,2013-10-13 23:27:00,
2013-10-13 18:32:00,68.7,54.3,30.26,NNE,22,0.0,0.0,60,0.00,,,0.00,WUHU21623XXSP,2013-10-13 23:32:00,
2013-10-13 18:37:00,68.2,54.2,30.26,NNE,22,0.0,0.0,61,0.00,,,0.00,WUHU21623XXSP,2013-10-13 23:37:00,
2013-10-13 18:42:00,67.8,54.3,30.26,NNE,22,0.0,0.0,62,0.00,,,0.00,WUHU21623XXSP,2013-10-13 23:42:00,
2013-10-13 18:47:00,67.5,54.0,30.26,NNE,22,0.0,0.0,62,0.00,,,0.00,WUHU21623XXSP,2013-10-13 23:47:00,
2013-10-13 18:52:00,66.9,53.5,30.27,NNE,22,0.0,0.0,62,0.00,,,0.00,WUHU21623XXSP,2013-10-13 23:52:00,
2013-10-13 18:57:00,66.6,53.5,30.27,NNE,22,0.0,0.0,63,0.00,,,0.00,WUHU21623XXSP,2013-10-13 23:57:00,
2013-10-13 19:02:00,66.2,53.6,30.27,NNE,22,0.0,0.0,64,0.00,,,0.00,WUHU21623XXSP,2013-10-14 00:02:00,
2013-10-13 19:07:00,65.8,53.3,30.27,NNE,22,0.0,0.0,64,0.00,,,0.00,WUHU21623XXSP,2013-10-14 00:07:00,
2013-10-13 19:12:00,65.7,53.1,30.27,NNE,22,0.0,0.0,64,0.00,,,0.00,WUHU21623XXSP,2013-10-14 00:12:00,
2013-10-13 19:17:00,65.5,53.4,30.28,NNE,22,0.0,0.0,65,0.00,,,0.00,WUHU21623XXSP,2013-10-14 00:17:00,
2013-10-13 19:22:00,65.1,53.4,30.28,NNE,22,0.0,0.0,66,0.00,,,0.00,WUHU21623XXSP,2013-10-14 00:22:00,
2013-10-13 19:27:00,65.1,53.4,30.28,NNE,22,0.0,0.0,66,0.00,,,0.00,WUHU21623XXSP,2013-10-14 00:27:00,
2013-10-13 19:33:00,64.9,53.3,30.28,NNE,22,0.0,0.0,66,0.00,,,0.00,WUHU21623XXSP,2013-10-14 00:33:00,
2013-10-13 19:38:00,64.8,53.1,30.28,NNE,22,0.0,0.0,66,0.00,,,0.00,WUHU21623XXSP,2013-10-14 00:38:00,
2013-10-13 19:43:00,64.6,52.9,30.28,NNE,22,0.0,0.0,66,0.00,,,0.00,WUHU21623XXSP,2013-10-14 00:43:00,
2013-10-13 19:48:00,64.6,52.9,30.28,NNE,22,0.0,0.0,66,0.00,,,0.00,WUHU21623XXSP,2013-10-14 00:48:00,
2013-10-13 19:53:00,64.2,52.6,30.29,NNE,22,0.0,0.0,66,0.00,,,0.00,WUHU21623XXSP,2013-10-14 00:53:00,
2013-10-13 19:58:00,64.0,52.4,30.29,NNE,22,0.0,0.0,66,0.00,,,0.00,WUHU21623XXSP,2013-10-14 00:58:00,
2013-10-13 20:03:00,64.0,52.8,30.29,NNE,22,0.0,0.0,67,0.00,,,0.00,WUHU21623XXSP,2013-10-14 01:03:00,
2013-10-13 20:08:00,63.7,52.5,30.29,NNE,22,0.0,0.0,67,0.00,,,0.00,WUHU21623XXSP,2013-10-14 01:08:00,
2013-10-13 20:13:00,63.5,52.3,30.28,NNE,22,0.0,0.0,67,0.00,,,0.00,WUHU21623XXSP,2013-10-14 01:13:00,
2013-10-13 20:18:00,63.3,52.6,30.29,NNE,22,0.0,0.0,68,0.00,,,0.00,WUHU21623XXSP,2013-10-14 01:18:00,
2013-10-13 20:23:00,63.1,52.4,30.30,NNE,22,0.0,0.0,68,0.00,,,0.00,WUHU21623XXSP,2013-10-14 01:23:00,
2013-10-13 20:28:00,63.0,52.2,30.29,NNE,22,0.0,0.0,68,0.00,,,0.00,WUHU21623XXSP,2013-10-14 01:28:00,
2013-10-13 20:33:00,62.8,52.0,30.29,NNE,22,0.0,0.0,68,0.00,,,0.00,WUHU21623XXSP,2013-10-14 01:33:00,
2013-10-13 20:38:00,62.6,52.3,30.29,NNE,22,0.0,0.0,69,0.00,,,0.00,WUHU21623XXSP,2013-10-14 01:38:00,
2013-10-13 20:43:00,62.4,52.1,30.30,NNE,22,0.0,0.0,69,0.00,,,0.00,WUHU21623XXSP,2013-10-14 01:43:00,
2013-10-13 20:48:00,62.2,52.0,30.30,NNE,22,0.0,0.0,69,0.00,,,0.00,WUHU21623XXSP,2013-10-14 01:48:00,
2013-10-13 20:53:00,62.1,51.8,30.29,NNE,22,0.0,0.0,69,0.00,,,0.00,WUHU21623XXSP,2013-10-14 01:53:00,
2013-10-13 20:58:00,61.7,51.5,30.29,NNE,22,0.0,0.0,69,0.00,,,0.00,WUHU21623XXSP,2013-10-14 01:58:00,
2013-10-13 21:03:00,61.5,51.7,30.30,NNE,22,0.0,0.0,70,0.00,,,0.00,WUHU21623XXSP,2013-10-14 02:03:00,
2013-10-13 21:08:00,61.3,51.6,30.30,NNE,22,0.0,0.0,70,0.00,,,0.00,WUHU21623XXSP,2013-10-14 02:08:00,
2013-10-13 21:13:00,61.0,51.2,30.30,NNE,22,0.0,0.0,70,0.00,,,0.00,WUHU21623XXSP,2013-10-14 02:13:00,
2013-10-13 21:18:00,60.6,51.1,30.30,NNE,22,0.0,0.0,71,0.00,,,0.00,WUHU21623XXSP,2013-10-14 02:18:00,
2013-10-13 21:24:00,60.4,51.3,30.30,NNE,22,0.0,0.0,71,0.00,,,0.00,WUHU21623XXSP,2013-10-14 02:24:00,
2013-10-13 21:29:00,60.1,51.1,30.30,NNE,22,0.0,0.0,71,0.00,,,0.00,WUHU21623XXSP,2013-10-14 02:29:00,
2013-10-13 21:34:00,60.1,51.1,30.30,NNE,22,0.0,0.0,72,0.00,,,0.00,WUHU21623XXSP,2013-10-14 02:34:00,
2013-10-13 21:39:00,59.7,51.1,30.30,NNE,22,0.0,0.0,73,0.00,,,0.00,WUHU21623XXSP,2013-10-14 02:39:00,
2013-10-13 21:44:00,59.5,50.5,30.30,NNE,22,0.0,0.0,72,0.00,,,0.00,WUHU21623XXSP,2013-10-14 02:44:00,
2013-10-13 21:49:00,59.2,50.2,30.30,NNE,22,0.0,0.0,72,0.00,,,0.00,WUHU21623XXSP,2013-10-14 02:49:00,
2013-10-13 21:54:00,58.8,50.2,30.30,NNE,22,0.0,0.0,73,0.00,,,0.00,WUHU21623XXSP,2013-10-14 02:54:00,
2013-10-13 21:59:00,58.8,50.5,30.30,NNE,22,0.0,0.0,74,0.00,,,0.00,WUHU21623XXSP,2013-10-14 02:59:00,
2013-10-13 22:04:00,58.8,50.9,30.30,NNE,22,0.0,0.0,75,0.00,,,0.00,WUHU21623XXSP,2013-10-14 03:04:00,
2013-10-13 22:09:00,58.8,50.9,30.31,NNE,22,0.0,0.0,75,0.00,,,0.00,WUHU21623XXSP,2013-10-14 03:09:00,
2013-10-13 22:14:00,58.8,50.9,30.31,NNE,22,0.0,0.0,75,0.00,,,0.00,WUHU21623XXSP,2013-10-14 03:14:00,
2013-10-13 22:19:00,58.8,50.9,30.31,NNE,22,0.0,0.0,75,0.00,,,0.00,WUHU21623XXSP,2013-10-14 03:19:00,
2013-10-13 22:24:00,58.6,51.1,30.31,NNE,22,0.0,0.0,76,0.00,,,0.00,WUHU21623XXSP,2013-10-14 03:24:00,
2013-10-13 22:29:00,58.6,51.1,30.31,NNE,22,0.0,0.0,76,0.00,,,0.00,WUHU21623XXSP,2013-10-14 03:29:00,
2013-10-13 22:34:00,58.6,51.1,30.31,NNE,22,0.0,0.0,76,0.00,,,0.00,WUHU21623XXSP,2013-10-14 03:34:00,
2013-10-13 22:39:00,58.6,51.4,30.31,NNE,22,0.0,0.0,77,0.00,,,0.00,WUHU21623XXSP,2013-10-14 03:39:00,
2013-10-13 22:44:00,58.5,51.3,30.31,NNE,22,0.0,0.0,77,0.00,,,0.00,WUHU21623XXSP,2013-10-14 03:44:00,
2013-10-13 22:49:00,58.3,51.1,30.31,NNE,22,0.0,0.0,77,0.00,,,0.00,WUHU21623XXSP,2013-10-14 03:49:00,
2013-10-13 22:54:00,58.3,51.1,30.30,NNE,22,0.0,0.0,77,0.00,,,0.00,WUHU21623XXSP,2013-10-14 03:54:00,
2013-10-13 22:59:00,58.1,50.9,30.30,NNE,22,0.0,0.0,77,0.00,,,0.00,WUHU21623XXSP,2013-10-14 03:59:00,
2013-10-13 23:04:00,58.1,50.9,30.30,NNE,22,0.0,0.0,77,0.00,,,0.00,WUHU21623XXSP,2013-10-14 04:04:00,
2013-10-13 23:09:00,58.1,50.9,30.31,NNE,22,0.0,0.0,77,0.00,,,0.00,WUHU21623XXSP,2013-10-14 04:09:00,
2013-10-13 23:14:00,57.9,50.7,30.30,NNE,22,0.0,0.0,77,0.00,,,0.00,WUHU21623XXSP,2013-10-14 04:14:00,
2013-10-13 23:19:00,57.9,50.7,30.30,NNE,22,0.0,0.0,77,0.00,,,0.00,WUHU21623XXSP,2013-10-14 04:19:00,
2013-10-13 23:24:00,57.9,50.7,30.30,NNE,22,0.0,0.0,77,0.00,,,0.00,WUHU21623XXSP,2013-10-14 04:24:00,
2013-10-13 23:29:00,57.9,51.1,30.30,NNE,22,0.0,0.0,78,0.00,,,0.00,WUHU21623XXSP,2013-10-14 04:29:00,
2013-10-13 23:34:00,57.9,51.1,30.30,NNE,22,0.0,0.0,78,0.00,,,0.00,WUHU21623XXSP,2013-10-14 04:34:00,
2013-10-13 23:39:00,57.9,51.1,30.30,NNE,22,0.0,0.0,78,0.00,,,0.00,WUHU21623XXSP,2013-10-14 04:39:00,
2013-10-13 23:44:00,57.9,51.1,30.30,NNE,22,0.0,0.0,78,0.00,,,0.00,WUHU21623XXSP,2013-10-14 04:44:00,
2013-10-13 23:49:00,57.9,51.4,30.30,NNE,22,0.0,0.0,79,0.00,,,0.00,WUHU21623XXSP,2013-10-14 04:49:00,
2013-10-13 23:54:00,57.7,51.3,30.29,NNE,22,0.0,0.0,79,0.00,,,0.00,WUHU21623XXSP,2013-10-14 04:54:00,
2013-10-13 23:59:00,57.7,51.3,30.29,NNE,22,0.0,0.0,79,0.00,,,0.00,WUHU21623XXSP,2013-10-14 04:59:00,